When you browse on this site, cookies collect data to enhance your experience and personalize the content and advertising you see.
Visit our Privacy Policy to learn more. By continuing to use the site, you agree to this use of cookies and data.
  • In Spain
  • List of Countries
  • For 7 days
  • Water Temperature
  • Satellite Maps
  • Weather Map
  • Weather Widgets
  • user-avatar
    Login

    Hourly Weather Ahmadabad

    Today, 23 April, Tuesday

    Time Temperature Precipitation Wind Pressure Humidity
    00:00 +35°C° 0 mm 2 mps 751 mmHg 20%
    01:00 +35°C° 0 mm 2 mps 750 mmHg 21%
    02:00 +34°C° 0 mm 2 mps 750 mmHg 23%
    03:00 +34°C° 0 mm 3 mps 751 mmHg 28%
    04:00 +33°C° 0 mm 3 mps 751 mmHg 33%
    05:00 +31°C° 0 mm 3 mps 751 mmHg 38%
    06:00 +33°C° 0 mm 3 mps 751 mmHg 39%
    07:00 +34°C° 0 mm 3 mps 752 mmHg 40%
    08:00 +34°C° 0 mm 4 mps 752 mmHg 42%
    09:00 +37°C° 0 mm 3 mps 752 mmHg 34%
    10:00 +39°C° 0 mm 3 mps 752 mmHg 27%
    11:00 +41°C° 0 mm 2 mps 752 mmHg 20%
    12:00 +44°C° 0 mm 3 mps 751 mmHg 17%
    13:00 +45°C° 0 mm 3 mps 751 mmHg 14%
    14:00 +46°C° 0 mm 3 mps 750 mmHg 11%
    15:00 +46°C° 0 mm 3 mps 750 mmHg 10%
    16:00 +47°C° 0 mm 4 mps 750 mmHg 10%
    17:00 +47°C° 0 mm 4 mps 749 mmHg 10%
    18:00 +44°C° 0 mm 4 mps 750 mmHg 10%
    19:00 +42°C° 0 mm 4 mps 750 mmHg 11%
    20:00 +40°C° 0 mm 4 mps 750 mmHg 11%
    21:00 +40°C° 0 mm 4 mps 751 mmHg 14%
    22:00 +38°C° 0 mm 3 mps 751 mmHg 17%
    23:00 +37°C° 0 mm 3 mps 752 mmHg 19%

    Tomorrow, 24 April, Wednesday

    Time Temperature Precipitation Wind Pressure Humidity
    00:00 +36°C° 0 mm 4 mps 751 mmHg 22%
    01:00 +36°C° 0 mm 4 mps 751 mmHg 24%
    02:00 +35°C° 0 mm 5 mps 751 mmHg 26%
    03:00 +34°C° 0 mm 4 mps 751 mmHg 33%
    04:00 +33°C° 0 mm 4 mps 751 mmHg 40%
    05:00 +32°C° 0 mm 4 mps 751 mmHg 47%
    06:00 +33°C° 0 mm 4 mps 752 mmHg 46%
    07:00 +34°C° 0 mm 4 mps 752 mmHg 46%
    08:00 +34°C° 0 mm 4 mps 753 mmHg 45%
    09:00 +37°C° 0 mm 4 mps 753 mmHg 38%
    10:00 +39°C° 0 mm 3 mps 753 mmHg 31%
    11:00 +42°C° 0 mm 3 mps 753 mmHg 23%
    12:00 +44°C° 0 mm 3 mps 752 mmHg 20%
    13:00 +45°C° 0 mm 4 mps 751 mmHg 16%
    14:00 +47°C° 0 mm 4 mps 751 mmHg 13%
    15:00 +47°C° 0 mm 4 mps 750 mmHg 13%
    16:00 +47°C° 0 mm 4 mps 750 mmHg 13%
    17:00 +46°C° 0 mm 5 mps 749 mmHg 13%
    18:00 +44°C° 0 mm 4 mps 750 mmHg 15%
    19:00 +42°C° 0 mm 4 mps 750 mmHg 16%
    20:00 +40°C° 0 mm 4 mps 751 mmHg 18%
    21:00 +40°C° 0 mm 4 mps 751 mmHg 18%
    22:00 +39°C° 0 mm 5 mps 751 mmHg 19%
    23:00 +39°C° 0 mm 6 mps 752 mmHg 19%

    Day after tomorrow, 25 April, Thursday

    Time Temperature Precipitation Wind Pressure Humidity
    00:00 +37°C° 0 mm 5 mps 751 mmHg 24%
    01:00 +35°C° 0 mm 5 mps 751 mmHg 30%
    02:00 +34°C° 0 mm 5 mps 750 mmHg 35%
    03:00 +34°C° 0 mm 5 mps 751 mmHg 37%
    04:00 +33°C° 0 mm 4 mps 751 mmHg 39%
    05:00 +32°C° 0 mm 4 mps 751 mmHg 42%
    06:00 +33°C° 0 mm 4 mps 751 mmHg 42%
    07:00 +33°C° 0 mm 4 mps 752 mmHg 42%
    08:00 +34°C° 0 mm 3 mps 752 mmHg 42%
    09:00 +36°C° 0 mm 3 mps 752 mmHg 35%
    10:00 +39°C° 0 mm 3 mps 753 mmHg 27%
    11:00 +43°C° 0 mm 3 mps 753 mmHg 20%
    12:00 +44°C° 0 mm 4 mps 752 mmHg 17%
    13:00 +45°C° 0 mm 4 mps 751 mmHg 15%
    14:00 +48°C° 0 mm 4 mps 750 mmHg 12%
    15:00 +47°C° 0 mm 5 mps 750 mmHg 12%
    16:00 +47°C° 0 mm 5 mps 750 mmHg 12%
    17:00 +47°C° 0 mm 5 mps 749 mmHg 12%
    18:00 +44°C° 0 mm 4 mps 750 mmHg 14%
    19:00 +42°C° 0 mm 4 mps 751 mmHg 16%
    20:00 +40°C° 0 mm 3 mps 751 mmHg 18%
    21:00 +39°C° 0 mm 3 mps 751 mmHg 19%
    22:00 +38°C° 0 mm 3 mps 751 mmHg 21%
    23:00 +38°C° 0 mm 3 mps 752 mmHg 23%

    26 April, Friday

    Time Temperature Precipitation Wind Pressure Humidity
    00:00 +37°C° 0 mm 4 mps 751 mmHg 27%
    01:00 +36°C° 0 mm 4 mps 751 mmHg 31%
    02:00 +35°C° 0 mm 4 mps 750 mmHg 35%
    03:00 +35°C° 0 mm 5 mps 750 mmHg 36%
    04:00 +34°C° 0 mm 5 mps 750 mmHg 38%
    05:00 +33°C° 0 mm 6 mps 750 mmHg 39%
    06:00 +34°C° 0 mm 6 mps 751 mmHg 36%
    07:00 +35°C° 0 mm 5 mps 751 mmHg 33%
    08:00 +36°C° 0 mm 5 mps 752 mmHg 31%
    09:00 +39°C° 0 mm 5 mps 752 mmHg 25%
    10:00 +42°C° 0 mm 5 mps 752 mmHg 19%
    11:00 +46°C° 0 mm 5 mps 752 mmHg 13%
    12:00 +47°C° 0 mm 5 mps 751 mmHg 12%
    13:00 +48°C° 0 mm 5 mps 750 mmHg 11%
    14:00 +49°C° 0 mm 5 mps 749 mmHg 9%
    15:00 +48°C° 0 mm 5 mps 749 mmHg 10%
    16:00 +48°C° 0 mm 6 mps 749 mmHg 10%
    17:00 +47°C° 0 mm 6 mps 748 mmHg 11%
    18:00 +46°C° 0 mm 6 mps 749 mmHg 12%
    19:00 +43°C° 0 mm 5 mps 750 mmHg 14%
    20:00 +41°C° 0 mm 4 mps 750 mmHg 15%
    21:00 +39°C° 0 mm 3 mps 751 mmHg 15%
    22:00 +39°C° 0 mm 3 mps 751 mmHg 16%
    23:00 +38°C° 0 mm 3 mps 751 mmHg 16%

    27 April, Saturday

    Time Temperature Precipitation Wind Pressure Humidity
    00:00 +37°C° 0 mm 3 mps 751 mmHg 18%
    01:00 +37°C° 0 mm 3 mps 750 mmHg 21%
    02:00 +36°C° 0 mm 4 mps 750 mmHg 24%
    03:00 +35°C° 0 mm 4 mps 750 mmHg 29%
    04:00 +34°C° 0 mm 4 mps 750 mmHg 33%
    05:00 +33°C° 0 mm 4 mps 750 mmHg 38%
    06:00 +34°C° 0 mm 5 mps 751 mmHg 38%
    07:00 +35°C° 0 mm 6 mps 751 mmHg 37%
    08:00 +36°C° 0 mm 6 mps 752 mmHg 37%
    09:00 +39°C° 0 mm 6 mps 752 mmHg 30%
    10:00 +42°C° 0 mm 6 mps 751 mmHg 23%
    11:00 +45°C° 0 mm 6 mps 751 mmHg 16%
    12:00 +47°C° 0 mm 6 mps 750 mmHg 14%
    13:00 +48°C° 0 mm 6 mps 750 mmHg 12%
    14:00 +49°C° 0 mm 6 mps 749 mmHg 9%
    15:00 +48°C° 0 mm 6 mps 749 mmHg 9%
    16:00 +48°C° 0 mm 6 mps 748 mmHg 9%
    17:00 +47°C° 0 mm 6 mps 748 mmHg 9%
    18:00 +45°C° 0 mm 5 mps 749 mmHg 11%
    19:00 +42°C° 0 mm 4 mps 749 mmHg 12%
    20:00 +39°C° 0 mm 3 mps 750 mmHg 14%
    21:00 +39°C° 0 mm 3 mps 750 mmHg 14%
    22:00 +38°C° 0 mm 3 mps 751 mmHg 14%
    23:00 +37°C° 0 mm 3 mps 751 mmHg 15%

    28 April, Sunday

    Time Temperature Precipitation Wind Pressure Humidity
    00:00 +37°C° 0 mm 3 mps 750 mmHg 18%
    01:00 +36°C° 0 mm 4 mps 750 mmHg 21%
    02:00 +35°C° 0 mm 4 mps 749 mmHg 24%
    03:00 +35°C° 0 mm 4 mps 749 mmHg 27%
    04:00 +34°C° 0 mm 4 mps 750 mmHg 30%
    05:00 +33°C° 0 mm 4 mps 750 mmHg 33%
    06:00 +34°C° 0 mm 4 mps 750 mmHg 32%
    07:00 +35°C° 0 mm 5 mps 751 mmHg 31%
    08:00 +36°C° 0 mm 5 mps 751 mmHg 30%
    09:00 +39°C° 0 mm 5 mps 751 mmHg 25%
    10:00 +42°C° 0 mm 5 mps 751 mmHg 20%
    11:00 +45°C° 0 mm 5 mps 751 mmHg 15%
    12:00 +46°C° 0 mm 5 mps 750 mmHg 13%
    13:00 +47°C° 0 mm 6 mps 749 mmHg 10%
    14:00 +49°C° 0 mm 6 mps 748 mmHg 8%
    15:00 +48°C° 0 mm 6 mps 748 mmHg 8%
    16:00 +47°C° 0 mm 6 mps 748 mmHg 8%
    17:00 +47°C° 0 mm 6 mps 747 mmHg 8%
    18:00 +45°C° 0 mm 5 mps 748 mmHg 9%
    19:00 +42°C° 0 mm 4 mps 749 mmHg 10%
    20:00 +39°C° 0 mm 3 mps 749 mmHg 10%
    21:00 +39°C° 0 mm 3 mps 749 mmHg 11%
    22:00 +38°C° 0 mm 3 mps 750 mmHg 11%
    23:00 +37°C° 0 mm 3 mps 750 mmHg 11%
    Show more